Wind_Speed
26 26 26 24 22 20 19 20 21 22 23 24 24 24 23 22 20 19 19 19 18 19 19 20 20 20 19 17 15 14 13 11 10 9 9 8 7 6 5 4 3 2 1 1 1 1 2 2 2 3 3 3 3 3 4 5 5 4 4 4 4 5 5 5 5 5 5 5 5
26 26 25 23 21 20 19 20 20 22 24 24 24 23 22 21 20 20 20 19 20 21 22 22 21 20 19 17 15 14 12 11 10 10 9 7 6 5 4 4 3 2 1 1 1 1 2 2 2 2 3 3 2 2 3 5 5 5 4 4 4 5 5 5 5 5 5 5 5
26 25 24 22 21 20 20 20 21 23 24 23 22 21 21 20 20 20 20 21 22 24 24 24 22 20 18 17 15 14 12 11 10 9 8 7 6 5 4 3 2 2 1 1 1 1 1 2 1 2 2 2 1 1 3 5 6 5 4 4 5 5 5 4 4 4 5 5 5
26 25 23 23 22 22 21 22 24 25 24 23 21 20 20 20 20 21 23 24 24 25 25 24 22 20 18 17 15 14 12 11 10 9 8 7 6 5 4 3 2 1 1 0 1 1 2 2 2 2 2 1 1 2 3 5 5 5 4 5 5 5 4 4 4 4 5 5 5
25 23 22 22 22 23 23 24 26 26 25 23 22 22 22 21 22 23 24 25 25 25 24 23 22 20 18 17 15 14 13 12 10 9 8 7 6 5 4 3 2 1 0 0 1 2 2 2 2 2 2 2 2 3 4 5 5 5 4 5 5 5 4 4 4 4 5 5 5
23 22 21 22 22 23 23 25 26 26 24 23 24 24 23 23 24 25 26 25 26 25 24 22 21 20 18 17 15 14 13 12 10 9 8 7 6 5 4 3 2 1 0 1 1 2 2 2 2 2 3 3 3 4 5 6 5 4 4 4 4 4 4 4 4 5 5 6 6
21 21 21 22 23 23 24 26 25 24 24 24 25 25 25 26 26 27 27 27 27 25 23 22 21 19 18 17 16 14 13 12 10 9 8 6 6 5 4 3 2 1 0 1 1 2 2 2 2 2 3 3 3 4 5 6 6 5 4 3 3 4 4 4 5 5 6 6 7
21 22 22 23 24 25 26 26 25 24 24 24 25 26 27 28 28 28 28 27 26 25 23 21 20 19 18 17 16 14 13 12 10 9 8 6 5 4 4 3 2 1 0 1 1 2 2 2 2 2 3 3 3 3 5 6 6 5 4 4 4 4 4 5 5 6 6 7 7
21 22 22 23 24 26 26 26 25 25 25 25 25 27 28 29 29 29 28 26 25 24 23 21 20 18 17 16 15 14 12 11 10 9 7 6 5 4 3 3 2 1 0 1 1 2 2 3 3 3 3 4 3 4 5 6 6 5 4 4 4 4 5 5 5 6 7 7 8
22 22 22 22 24 26 26 25 25 25 25 25 26 28 29 29 29 28 27 26 25 24 22 21 19 18 17 16 14 13 12 11 10 8 7 6 5 4 4 3 2 1 0 1 1 2 3 3 3 3 4 4 4 4 5 6 6 5 4 4 5 5 6 6 6 7 7 7 8
23 23 23 23 25 26 26 26 25 25 26 27 27 28 29 29 28 27 27 26 25 23 22 20 19 18 17 15 14 13 11 10 9 8 7 6 5 4 3 3 2 1 0 1 2 2 3 3 2 3 4 4 4 4 5 6 6 5 5 5 6 6 7 7 7 7 7 8 8
23 23 23 24 26 27 27 26 26 26 27 28 28 28 28 27 27 27 26 25 24 22 21 20 19 17 16 15 14 12 11 10 9 8 7 6 5 4 3 2 1 1 0 1 2 3 3 3 3 3 3 4 3 3 4 5 5 5 5 6 6 7 7 7 7 7 7 8 9
24 24 24 25 27 27 27 27 27 27 27 28 28 27 27 26 27 26 25 24 23 22 21 19 18 17 15 14 13 12 11 10 8 7 6 6 4 4 3 2 1 1 1 2 3 3 4 4 4 3 3 3 3 3 4 5 5 5 6 6 7 7 8 8 8 8 8 9 9
24 25 26 27 28 28 27 28 27 27 27 27 27 27 26 26 26 25 24 24 23 22 21 19 18 16 14 13 12 11 10 9 8 7 6 5 4 3 2 2 1 1 2 3 3 4 4 4 4 4 4 4 4 4 5 5 5 6 6 7 7 8 8 8 8 8 9 9 10
24 25 27 28 27 27 27 27 27 27 27 27 26 26 26 25 25 24 24 23 23 22 21 20 18 16 14 13 11 10 9 8 7 6 6 5 4 3 2 1 1 1 2 3 4 5 5 5 5 5 5 5 5 5 5 5 6 6 7 7 8 8 9 9 9 9 9 10 11
25 26 27 27 27 27 27 27 26 26 26 26 26 26 25 24 24 24 23 23 22 21 20 19 18 16 14 13 11 10 9 8 7 6 5 4 4 3 2 1 1 2 3 4 4 5 5 6 6 6 6 6 6 6 6 6 6 7 7 8 8 9 9 9 9 9 10 10 11
25 26 26 26 26 26 26 26 25 26 26 26 26 25 24 24 23 23 23 22 22 21 20 18 17 16 14 13 11 10 9 8 7 6 5 4 3 2 2 1 1 3 4 4 4 4 5 5 6 6 6 7 6 6 7 7 7 7 8 8 8 9 9 9 9 9 10 10 11
25 25 25 25 26 26 26 26 26 26 26 26 26 25 24 23 23 23 22 22 21 20 19 18 16 15 14 12 11 10 9 8 7 6 5 4 3 2 1 1 2 3 4 5 5 4 4 5 5 6 6 6 7 7 7 7 8 8 8 9 9 9 9 9 9 10 10 11 12
24 24 24 24 25 26 26 26 26 27 26 26 25 24 24 23 23 23 22 21 20 19 18 17 16 14 13 12 11 10 8 7 6 5 4 3 2 2 1 2 3 4 5 5 5 5 5 5 5 5 6 6 7 7 7 8 8 8 9 9 9 9 9 9 10 10 10 11 12
24 23 23 24 25 26 26 26 27 27 26 25 25 24 23 23 23 22 21 20 19 18 17 16 15 14 12 11 10 9 8 7 6 5 4 3 2 2 2 3 4 5 5 6 6 6 6 5 5 6 6 6 7 7 8 8 9 9 9 10 10 10 10 10 11 11 11 12 13
23 23 23 24 25 26 26 26 26 26 25 25 24 24 23 23 22 22 21 20 19 17 16 15 14 13 12 11 10 9 8 6 5 4 3 2 2 2 3 4 5 5 6 6 6 6 6 6 6 6 6 7 7 8 8 9 9 10 10 10 11 11 11 11 11 12 12 12 13
22 23 23 24 25 26 26 26 26 25 25 24 24 23 23 22 22 21 20 19 18 16 15 14 13 12 11 10 9 8 7 6 5 4 3 2 2 2 3 4 5 6 6 7 7 7 7 7 6 6 7 7 8 8 9 9 10 10 11 11 12 12 12 12 12 12 13 13 14
23 24 24 25 26 26 26 26 25 25 24 23 23 23 23 22 22 21 20 18 17 16 15 14 13 12 11 9 8 7 6 5 4 3 2 1 2 3 4 5 6 6 6 7 7 7 7 7 7 7 7 8 9 9 9 10 10 11 11 12 12 13 13 12 12 13 13 14 14
24 25 25 25 26 26 26 26 25 24 23 23 23 23 23 22 21 20 19 18 17 16 15 14 13 11 10 9 8 7 6 5 3 2 1 2 2 4 5 6 6 7 7 8 8 8 7 6 7 8 8 9 9 10 10 11 11 11 12 12 13 13 13 13 13 13 14 14 15
25 26 26 26 26 26 26 25 24 24 23 23 23 23 22 21 20 19 18 17 16 15 14 13 12 11 10 8 7 6 5 4 3 2 1 2 3 4 5 6 6 7 8 9 9 9 8 6 7 8 9 9 10 11 11 11 11 12 12 12 13 13 14 14 14 14 14 15 15
26 27 27 27 26 25 25 24 24 24 24 23 23 22 22 21 20 19 18 17 16 15 13 12 11 10 9 8 7 6 4 3 2 1 1 2 3 4 5 6 7 8 9 10 10 9 8 7 7 8 9 10 10 11 11 12 12 12 12 12 13 13 13 14 14 14 15 15 15
27 27 26 26 25 24 24 23 24 24 23 23 23 22 21 20 19 18 18 17 16 14 13 12 11 10 8 7 6 5 4 2 1 1 1 3 4 5 6 6 7 8 10 10 10 9 8 7 8 9 9 10 11 11 12 12 12 12 12 12 12 13 13 14 15 15 15 15 15
26 26 26 25 24 23 23 23 23 23 23 22 22 21 20 19 18 18 17 16 15 14 13 12 10 9 8 7 6 4 3 2 1 1 2 4 5 6 6 7 8 9 10 11 10 9 8 8 8 9 9 10 11 12 12 12 12 12 12 12 12 13 13 14 14 15 15 15 15
26 26 25 24 23 22 22 22 22 22 22 22 21 20 19 19 18 17 16 15 14 14 12 11 10 8 7 7 5 3 2 1 1 2 3 5 6 6 7 8 9 10 11 11 11 10 9 8 9 9 10 11 11 12 12 12 12 12 12 12 12 13 13 14 14 15 15 15 15
25 25 24 23 22 22 22 21 22 22 21 21 20 19 19 18 17 16 16 15 14 13 11 10 9 8 7 6 4 3 1 1 2 3 4 5 6 7 8 9 9 10 11 11 11 10 9 9 9 10 11 11 12 12 12 12 12 12 12 12 13 13 14 14 15 15 15 15 15
24 23 23 22 22 21 21 21 21 21 21 20 19 18 18 17 16 16 15 14 13 11 10 9 8 7 6 4 3 2 1 2 3 4 5 6 7 7 8 9 10 11 11 11 11 10 9 9 10 11 11 12 12 12 12 12 12 12 12 13 13 14 14 14 14 15 15 15 15
23 23 22 22 21 21 21 21 21 21 20 19 18 17 17 16 16 15 14 13 11 10 9 8 7 6 5 3 2 1 2 3 4 5 6 7 8 8 9 9 10 10 11 11 11 10 10 10 11 11 12 13 13 13 13 12 13 13 13 13 14 14 14 14 14 14 15 15 15
22 22 22 22 22 22 21 21 20 19 19 18 18 17 17 16 16 15 13 12 11 10 9 8 7 6 4 3 2 2 2 3 4 6 7 8 8 9 9 8 8 9 11 11 11 10 10 11 11 12 13 13 13 13 13 12 12 13 13 13 14 14 14 14 14 14 15 15 15
22 23 23 23 22 22 21 20 19 19 18 18 17 17 17 16 15 14 13 12 11 10 9 8 6 5 4 3 2 2 3 4 5 6 7 8 9 9 9 7 7 9 11 12 11 11 11 11 12 12 13 14 13 13 12 12 12 13 13 14 14 14 14 14 14 14 15 15 15
23 23 23 23 22 22 21 20 19 19 18 17 17 16 16 15 14 13 12 11 10 9 8 7 5 4 2 2 2 3 3 4 6 7 8 8 9 9 8 7 7 9 11 12 12 11 11 11 12 13 14 14 13 12 12 13 13 13 13 14 14 14 14 14 14 14 15 15 15
24 24 23 23 22 21 20 20 19 18 18 17 16 16 15 14 13 12 11 10 9 8 7 5 4 3 2 2 3 3 4 5 6 7 8 9 9 8 7 7 7 9 11 12 12 12 12 12 12 13 14 13 13 13 13 13 13 13 13 13 14 14 14 14 14 14 14 14 14
24 24 24 23 22 21 20 19 19 18 17 16 16 16 15 14 13 11 10 9 8 7 5 4 4 3 3 3 3 4 4 6 6 7 8 8 8 8 7 7 7 8 10 12 12 12 12 12 12 13 14 13 13 13 13 13 13 13 13 13 13 14 14 14 14 14 14 13 13
24 24 24 23 22 20 19 18 17 17 17 16 16 15 14 13 12 11 9 8 7 6 5 4 3 3 2 3 3 4 5 6 7 7 7 7 8 8 8 7 7 8 10 11 12 12 12 12 13 13 14 14 13 13 13 13 13 13 13 13 13 13 14 13 13 13 13 13 14
23 23 23 22 21 20 18 17 17 17 17 16 16 14 13 12 11 10 9 8 7 6 5 4 3 2 3 4 4 5 6 7 7 7 7 6 7 8 8 7 7 8 10 11 13 13 13 12 13 13 14 13 13 13 13 13 13 13 13 13 13 13 14 13 13 13 14 14 15
23 22 22 21 20 19 18 17 17 17 17 16 15 14 12 11 10 9 8 7 6 5 4 3 2 3 3 4 4 5 5 6 7 7 7 6 7 8 8 8 8 8 9 11 12 13 13 12 13 13 14 13 13 13 12 12 12 13 13 13 13 14 14 13 13 14 15 15 15
21 21 20 19 19 18 17 17 17 16 16 15 14 13 11 10 9 8 7 6 5 4 3 3 3 3 4 4 5 5 4 4 5 6 7 7 7 7 8 8 8 8 9 10 11 12 12 12 13 13 13 13 13 12 12 12 12 12 13 13 13 14 14 14 15 15 15 16 16
Wind_Direction
162 162 162 161 161 161 160 161 162 163 163 163 162 161 159 157 156 156 157 156 155 156 157 159 161 160 158 157 156 153 150 147 145 142 140 136 133 129 125 121 116 111 102 78 38 24 16 9 0 355 353 350 340 327 322 325 324 318 312 307 304 303 303 302 297 295 294 292 289
161 162 161 160 159 159 158 159 160 162 163 162 161 159 158 157 157 156 156 156 157 158 159 160 160 158 156 155 154 152 150 148 146 144 141 138 135 131 128 125 122 117 108 91 51 25 18 14 6 354 345 344 340 311 303 316 322 319 309 305 302 304 306 303 298 296 296 294 291
161 161 160 159 159 158 158 159 160 161 161 160 158 157 156 157 157 156 156 157 159 160 160 159 158 156 155 154 153 152 150 149 147 145 142 140 137 135 132 131 130 128 121 96 39 18 16 18 0 341 334 334 318 277 285 308 321 321 311 304 304 306 307 304 299 298 298 296 293
161 161 161 161 161 161 161 162 161 160 159 157 155 155 156 156 156 155 156 157 159 160 159 158 157 155 155 154 153 152 150 149 147 146 144 142 140 138 138 136 137 139 136 57 4 7 7 2 346 337 331 316 286 275 289 306 319 320 314 311 311 310 306 301 297 297 297 296 295
162 162 163 164 164 163 163 162 160 158 157 156 155 156 157 157 155 155 155 156 158 159 159 158 156 155 154 153 152 151 150 149 148 147 146 145 144 143 142 141 144 148 132 20 3 2 2 355 343 337 327 307 293 290 302 316 323 322 318 316 315 312 306 298 295 294 295 296 296
161 163 163 164 164 162 161 160 158 157 156 156 157 158 157 157 155 154 154 156 157 158 158 157 155 154 153 152 152 151 150 150 150 149 149 148 147 146 146 147 148 148 115 14 2 2 0 354 341 331 327 321 309 310 320 329 332 329 322 313 307 306 304 296 292 293 294 295 297
160 160 161 161 161 160 159 158 157 155 155 157 158 158 157 156 155 155 156 157 157 157 157 156 155 153 153 152 152 152 151 151 150 151 151 151 150 149 149 151 152 147 106 18 2 0 358 350 337 327 326 329 317 316 325 333 336 334 323 306 296 297 297 292 291 292 295 296 298
157 158 158 158 159 158 157 156 155 155 155 157 157 157 157 156 156 156 156 156 156 156 156 155 154 154 153 153 153 153 152 152 152 152 152 152 151 150 150 151 151 147 106 22 3 353 348 345 343 332 326 330 326 319 322 331 336 334 322 303 295 293 292 290 290 293 295 297 298
153 154 155 155 157 157 156 155 155 155 156 156 156 156 156 156 156 155 154 154 155 155 155 154 153 153 153 153 153 153 153 153 154 154 153 153 153 151 150 150 151 151 105 13 358 351 349 349 346 339 335 338 332 321 321 329 334 331 319 303 297 295 294 292 292 293 295 297 298
151 151 152 153 155 155 154 153 154 155 154 154 154 155 156 156 155 155 154 155 155 154 153 152 152 152 152 152 153 153 154 154 155 155 154 153 153 152 152 151 152 157 141 0 356 358 359 359 348 339 339 341 335 327 325 330 331 324 312 302 299 298 297 296 296 296 297 298 299
151 151 152 152 153 153 152 152 152 153 152 152 153 153 154 154 154 155 155 155 153 151 151 151 151 151 152 153 154 154 154 155 155 155 154 153 153 153 153 153 153 157 163 357 0 4 5 3 348 338 338 339 338 330 325 327 325 317 304 299 298 299 300 300 301 301 301 301 302
151 151 151 152 152 153 152 151 150 150 151 151 151 152 152 153 154 155 154 152 150 149 149 150 151 152 153 154 154 155 155 155 155 154 153 152 152 152 150 149 145 139 22 2 5 7 7 0 351 342 336 338 336 323 316 317 316 309 301 299 299 300 301 303 305 305 304 304 305
150 150 150 151 152 152 151 150 149 149 149 150 150 150 151 152 153 153 152 150 148 148 148 149 151 153 154 155 155 155 154 154 153 153 151 150 149 148 145 142 130 75 20 8 7 7 4 357 351 344 336 331 321 310 309 311 309 304 300 301 301 303 304 305 307 306 306 306 305
149 149 150 151 152 151 149 148 147 148 148 149 149 150 150 150 151 151 150 148 148 148 148 149 151 153 154 155 155 154 153 152 151 150 148 147 145 144 140 133 98 44 17 8 6 6 3 354 347 342 334 325 314 308 307 308 305 302 301 301 302 304 305 306 307 307 307 307 307
148 149 150 151 150 149 148 147 146 147 148 148 149 149 149 148 148 149 149 149 148 148 149 149 151 152 153 154 153 152 150 149 148 147 146 144 142 139 133 116 70 30 13 6 4 2 359 352 344 337 330 322 314 309 307 304 302 300 300 300 301 302 304 305 306 307 307 307 308
148 149 150 150 149 148 147 146 146 147 148 148 148 148 147 146 147 149 149 148 148 148 149 150 151 151 152 152 151 149 147 146 145 144 144 143 140 135 127 103 53 22 12 7 3 359 354 349 341 334 327 320 314 309 305 303 300 299 297 298 299 300 301 303 304 305 305 306 307
148 149 149 149 149 148 147 147 147 147 148 148 148 147 146 146 147 148 149 149 148 148 149 150 151 151 151 150 149 147 146 144 144 144 144 143 140 134 123 86 33 14 8 7 3 355 347 341 334 328 324 319 313 309 305 302 300 297 297 297 297 297 298 299 301 302 303 304 305
147 148 149 149 148 148 148 147 147 147 147 147 147 147 146 146 147 148 148 149 149 149 149 149 150 150 149 148 147 146 145 145 146 147 146 144 137 127 102 46 15 7 5 3 0 351 341 332 325 321 318 314 310 306 303 300 297 296 296 296 296 296 296 296 297 299 301 302 304
146 147 147 148 148 148 148 147 147 147 147 147 147 146 146 147 147 147 148 148 150 150 149 149 149 149 148 147 146 145 146 147 147 147 143 137 124 101 54 19 6 2 0 358 355 350 341 330 322 315 311 307 305 301 298 296 296 295 295 296 296 295 295 295 296 296 298 300 302
145 146 146 147 148 147 147 147 146 146 146 146 146 146 145 146 147 147 146 147 149 150 149 148 147 147 146 146 145 146 146 146 145 143 135 122 103 66 27 9 2 358 356 355 353 348 340 331 322 315 309 305 301 299 297 296 296 296 296 297 297 296 295 295 295 295 296 298 301
144 144 145 147 147 146 146 146 146 145 145 145 145 144 145 145 146 146 146 147 148 148 148 147 146 145 145 146 146 146 145 144 141 136 127 105 77 36 11 2 359 356 355 354 351 346 339 331 323 315 308 303 299 297 297 297 297 297 298 298 298 298 296 295 294 294 295 298 300
142 143 144 145 145 145 145 144 144 143 143 143 143 143 144 144 145 145 146 146 146 146 145 144 144 144 144 145 146 145 142 139 135 129 116 87 44 13 1 357 357 356 355 354 350 346 340 335 325 313 304 298 296 296 296 297 298 298 299 299 299 298 297 295 294 294 295 297 299
141 142 143 144 144 144 143 143 142 141 141 141 141 142 143 144 144 145 144 144 145 144 143 143 143 143 144 144 143 142 138 133 127 118 97 54 15 0 356 354 355 355 354 352 349 348 344 336 323 312 304 300 298 297 296 297 298 298 299 299 300 299 298 296 295 295 296 298 300
141 141 142 143 143 142 142 141 140 139 139 139 141 142 143 143 143 143 143 143 144 144 143 143 143 143 143 142 140 137 133 128 122 108 68 23 1 354 353 353 354 354 351 349 348 350 349 338 323 315 312 308 304 301 299 297 297 297 298 299 299 299 298 297 296 296 298 299 301
141 141 141 141 141 141 140 140 139 138 139 140 141 142 142 142 142 142 142 143 143 144 144 143 142 142 140 139 136 132 128 124 120 103 48 8 355 353 354 355 353 351 349 348 347 350 351 342 326 318 315 312 308 305 301 298 296 296 296 297 298 298 298 298 298 298 299 300 302
140 140 140 140 140 139 138 138 138 138 139 140 141 141 141 141 142 142 142 142 143 143 142 142 140 139 137 135 133 131 129 127 122 96 39 6 356 355 355 355 352 349 348 348 348 350 350 340 326 317 313 311 309 306 303 299 297 296 295 295 295 296 297 299 300 301 302 302 303
139 139 139 139 138 137 137 138 138 138 139 139 140 140 140 141 142 142 142 142 142 142 141 140 138 137 135 133 133 134 134 131 114 65 16 1 359 357 357 353 350 349 348 347 347 349 347 336 323 317 314 312 309 306 302 299 297 296 295 295 294 295 297 299 301 303 304 304 305
139 138 138 137 136 136 136 137 137 137 138 139 139 140 141 141 141 142 142 142 142 141 140 140 138 136 135 136 138 139 137 127 81 20 4 357 356 357 355 352 349 347 346 345 346 347 343 333 323 318 315 313 310 305 301 298 296 296 295 295 296 297 298 300 302 303 305 305 305
138 137 137 136 135 134 135 135 136 136 138 139 140 140 140 140 141 141 142 142 142 142 142 141 139 139 139 141 142 141 134 103 30 9 1 359 358 356 352 350 348 345 344 344 345 345 340 330 322 318 316 314 311 306 302 298 296 296 296 296 297 298 300 301 302 303 304 305 305
137 136 135 134 133 133 134 135 136 137 138 139 139 139 139 139 140 141 142 142 143 143 143 142 141 142 143 143 142 136 117 54 12 4 3 2 359 354 349 347 345 344 343 342 344 343 336 327 322 319 316 314 311 306 301 298 296 296 296 297 298 298 300 301 302 303 303 304 305
135 135 134 133 132 133 134 135 136 137 138 138 138 138 138 139 140 142 144 145 144 144 142 142 143 144 143 141 135 122 81 22 7 2 0 358 355 350 346 345 344 343 341 341 342 340 333 326 322 319 317 315 312 306 301 297 296 296 296 297 297 298 299 300 301 302 304 305 306
134 133 133 132 132 133 134 135 136 136 136 136 137 138 139 141 143 145 145 145 144 143 142 142 145 144 141 135 123 93 36 14 6 359 356 353 350 348 346 345 343 340 339 339 340 338 332 326 322 319 318 316 311 306 300 297 296 296 296 297 297 298 298 299 301 302 304 305 306
133 133 132 132 132 133 134 135 135 135 136 137 139 142 143 144 145 145 145 144 143 143 143 144 144 140 133 121 100 59 25 7 359 355 352 350 348 347 347 345 339 336 335 337 337 336 332 326 322 320 318 316 312 306 300 298 297 296 297 298 298 298 297 298 299 301 303 304 305
133 133 133 133 133 134 135 135 136 137 138 140 142 144 145 145 145 145 145 145 145 145 144 144 142 138 129 117 86 49 22 4 355 352 349 348 347 346 346 342 334 331 333 335 336 335 332 327 323 321 319 317 312 307 302 300 298 297 298 298 299 299 299 299 299 301 302 304 305
135 134 134 134 134 135 136 137 138 140 141 141 142 144 145 145 145 145 146 148 147 146 145 143 140 133 119 92 51 29 15 3 354 350 347 346 345 345 342 337 329 329 331 334 335 335 332 328 325 322 321 318 313 308 305 302 300 299 299 300 300 301 301 301 302 302 303 304 305
137 136 135 135 136 137 138 139 140 141 141 141 142 144 145 146 146 147 147 147 147 144 140 134 126 110 86 56 33 19 9 359 351 347 344 343 343 342 337 331 327 327 330 333 334 334 333 330 326 324 323 320 315 311 308 305 303 301 301 302 303 303 304 304 304 304 305 305 305
138 138 137 137 137 138 140 141 141 141 141 142 144 146 147 148 147 146 146 145 141 137 130 122 109 91 69 48 28 10 357 351 348 345 342 340 340 338 334 328 324 325 328 331 333 334 333 331 327 326 325 321 317 313 310 308 305 304 304 304 304 305 305 306 306 307 307 306 304
140 140 140 139 139 140 141 142 141 141 142 145 147 149 149 149 146 144 142 139 134 128 123 115 106 87 57 30 12 359 351 348 346 344 341 338 335 335 332 326 321 321 325 329 333 335 335 333 329 327 326 322 318 314 311 309 307 306 306 306 306 306 307 308 309 309 308 304 302
141 142 142 141 140 141 141 142 142 143 146 147 148 149 149 148 144 142 139 136 132 126 122 115 101 70 35 18 9 358 349 344 342 341 339 335 331 331 331 326 320 319 323 328 334 337 337 333 329 327 326 323 319 316 313 310 308 307 307 307 307 308 309 311 311 310 306 302 302
142 142 142 141 141 141 141 142 144 146 148 148 147 147 147 145 142 140 138 136 132 127 118 105 80 45 24 14 9 359 349 343 340 338 336 332 329 331 332 328 322 319 322 328 334 337 336 331 329 328 327 324 321 317 314 311 309 308 308 309 310 311 312 313 312 309 305 303 303
142 142 141 141 141 142 143 143 145 148 149 148 147 146 145 143 139 137 135 132 126 118 105 82 52 28 14 8 3 357 350 342 336 333 332 332 331 332 332 328 324 322 323 326 331 334 333 330 328 328 328 326 324 319 315 313 311 310 311 311 312 313 314 314 312 308 306 305 305
Height
751 754 756 758 760 762 764 766 767 769 771 772 774 776 777 779 781 783 785 786 787 789 791 792 793 794 795 796 796 797 798 798 799 800 801 802 802 803 804 804 805 805 806 806 806 806 806 806 806 806 806 806 806 806 806 806 806 806 806 805 805 805 804 804 803 803 802 802 801
751 753 755 757 759 761 763 765 767 769 770 772 774 775 777 779 781 782 784 786 787 788 790 791 792 793 794 795 796 797 797 798 799 800 801 801 802 803 803 804 804 805 805 806 806 806 806 806 806 806 806 806 806 806 806 805 805 805 805 805 804 804 803 803 803 802 802 801 801
751 753 755 757 758 760 762 764 766 768 770 772 774 775 777 779 780 782 783 785 786 787 789 790 792 793 794 795 796 796 797 798 799 800 801 801 802 803 803 804 804 804 805 805 805 805 805 805 806 805 805 805 805 805 805 804 804 804 804 804 803 803 802 802 802 801 801 801 800
750 752 754 756 757 759 761 763 765 767 769 771 773 775 777 778 780 781 782 784 786 787 788 790 791 792 793 794 795 796 797 798 799 800 801 801 802 802 803 803 804 804 804 804 805 805 805 805 805 805 805 805 805 805 804 804 803 803 803 802 802 802 802 801 801 801 800 800 799
750 751 753 755 757 759 761 762 764 766 768 770 772 774 776 777 779 780 782 783 785 786 788 789 790 791 792 793 795 796 797 798 799 799 800 801 801 802 802 803 803 803 804 804 804 804 804 804 804 804 804 804 804 804 803 803 802 802 802 801 801 801 801 801 801 800 800 799 799
749 751 753 755 757 759 761 762 764 765 767 769 771 773 775 776 778 780 781 783 784 786 787 789 790 791 792 793 794 796 796 797 798 799 800 801 801 801 802 802 803 803 803 803 803 803 803 804 804 803 803 803 803 802 802 802 801 801 801 801 801 801 800 800 800 799 799 798 798
749 751 753 755 757 759 760 762 764 765 767 769 771 772 774 776 777 779 780 782 784 786 787 788 789 791 791 793 794 795 796 797 798 799 800 800 801 801 801 802 802 802 803 803 803 803 803 803 803 803 802 802 802 801 801 801 801 801 801 801 800 800 800 799 799 798 798 798 797
749 751 753 755 756 758 760 761 763 765 767 769 771 772 774 775 776 778 780 781 783 785 786 788 789 790 791 793 794 795 796 797 798 799 799 800 800 801 801 801 802 802 802 802 802 802 802 802 802 802 802 801 801 801 800 800 800 800 800 800 800 799 799 799 798 798 797 797 796
750 751 753 755 756 758 759 761 763 765 767 769 771 772 773 775 776 777 779 781 783 784 786 787 789 790 791 793 794 795 796 797 798 798 799 800 800 801 801 801 801 801 802 802 802 802 801 801 801 801 801 801 801 800 800 799 799 799 799 799 799 799 798 798 798 797 796 796 796
749 751 753 755 757 758 760 762 764 766 767 769 771 772 773 775 776 777 779 781 782 784 786 787 788 790 791 793 794 795 796 797 797 798 799 799 800 800 801 801 801 801 801 801 801 801 801 801 801 801 800 800 800 799 799 798 798 798 799 799 798 798 798 797 797 796 796 795 795
748 751 753 755 757 759 760 762 764 766 767 769 770 772 773 775 776 777 779 780 782 784 785 787 788 790 791 792 794 795 796 796 797 798 798 799 799 800 800 801 801 801 801 801 801 800 800 800 800 800 799 799 799 798 798 798 798 798 798 798 797 797 797 796 796 796 795 794 794
748 751 753 755 757 759 761 762 764 766 767 769 770 772 773 775 776 777 778 780 781 783 785 787 788 790 791 792 794 795 796 796 797 797 798 799 799 799 800 800 800 800 800 800 800 800 800 799 799 799 799 798 798 798 798 797 797 797 797 797 797 796 796 796 795 795 794 794 793
749 751 753 755 757 759 760 762 764 766 767 769 770 772 773 775 776 777 778 780 781 783 785 787 788 790 791 792 793 794 795 796 797 797 798 798 799 799 799 800 800 800 800 799 799 799 799 799 798 798 798 798 798 798 797 797 797 797 796 796 796 796 795 795 794 794 793 792 792
749 751 753 755 757 759 760 762 764 766 767 769 770 772 773 775 776 777 779 780 781 783 785 786 788 790 791 792 793 794 795 796 796 797 798 798 798 799 799 799 799 799 799 799 798 798 798 798 798 798 797 797 797 797 797 796 796 796 796 796 795 795 794 794 793 793 792 791 791
750 751 753 755 757 759 760 762 764 766 767 769 771 772 773 775 776 777 779 780 781 783 785 786 788 790 791 792 793 794 795 796 796 797 797 798 798 798 799 799 799 799 798 798 798 798 797 797 797 797 797 796 796 796 796 796 796 795 795 795 794 794 793 793 792 792 791 791 790
750 752 754 756 757 759 760 762 764 766 767 769 771 772 773 775 776 777 779 780 781 783 785 786 788 790 791 792 793 794 795 796 796 797 797 798 798 798 798 798 798 798 798 797 797 797 797 797 796 796 796 796 796 796 795 795 795 795 794 794 793 793 792 792 791 791 790 790 789
750 752 754 756 757 759 761 762 764 766 767 769 771 772 773 775 776 778 779 780 782 783 785 786 788 789 791 792 793 794 795 796 796 797 797 797 798 798 798 798 798 797 797 797 797 797 796 796 796 796 795 795 795 795 794 794 794 794 793 793 792 792 791 791 790 790 789 788 788
751 753 755 756 758 759 761 762 764 766 767 769 771 772 774 775 776 778 779 781 782 783 785 787 788 790 791 792 793 794 795 795 796 796 797 797 797 797 797 797 797 797 796 796 796 796 796 796 796 795 795 794 794 794 794 793 793 793 792 792 791 791 790 790 789 789 788 787 786
751 753 755 757 758 760 761 763 764 766 768 769 771 772 774 776 777 778 780 781 783 784 785 787 788 790 791 792 793 794 795 795 796 796 796 797 797 797 797 796 796 796 796 796 796 796 796 795 795 795 794 794 793 793 793 793 792 792 791 791 790 790 789 789 788 788 787 786 786
752 754 756 757 759 760 762 763 765 766 768 770 771 773 775 776 777 779 780 782 783 785 786 787 788 790 791 792 793 794 794 795 796 796 796 796 796 796 796 796 796 796 796 796 795 795 795 795 794 794 794 793 793 792 792 792 791 791 791 790 789 789 788 788 787 786 786 785 784
752 755 756 758 759 761 763 764 766 767 769 771 772 774 775 777 778 780 781 782 784 785 786 787 788 790 791 792 793 793 794 795 795 796 796 796 796 796 796 796 795 795 795 795 795 795 794 794 794 793 793 792 792 792 791 791 791 790 790 789 788 788 787 786 786 785 785 784 783
753 755 757 758 760 762 763 765 767 768 770 771 773 775 776 777 779 780 781 783 784 785 786 787 789 790 791 792 792 793 794 794 795 795 795 795 795 795 795 795 795 795 795 795 794 794 794 793 793 792 792 792 791 791 791 790 790 789 789 788 787 787 786 786 785 784 783 782 782
753 755 757 759 761 762 764 766 767 769 771 772 774 776 777 778 780 781 782 783 785 786 787 788 789 790 791 791 792 793 794 794 794 795 795 795 795 795 795 795 795 794 794 794 794 793 793 793 792 792 792 791 791 790 790 789 789 788 787 787 786 786 785 784 784 783 782 781 780
754 756 758 760 762 763 765 767 768 770 772 773 775 776 778 779 780 781 783 784 785 786 787 788 789 790 791 791 792 793 793 794 794 794 795 795 795 795 794 794 794 794 794 793 793 792 792 792 792 792 791 791 790 790 789 788 788 787 786 786 785 784 784 783 782 781 781 780 779
754 756 758 761 763 764 766 768 769 771 772 774 776 777 778 780 781 782 783 784 785 786 787 788 789 790 791 791 792 793 793 794 794 794 794 794 794 794 794 794 794 793 793 793 792 792 791 791 791 791 791 790 790 789 788 787 787 786 786 785 784 783 782 781 781 780 779 778 778
755 757 759 761 763 765 767 769 770 772 773 775 776 778 779 780 781 782 783 785 786 786 787 788 789 790 791 791 792 792 793 793 794 794 794 794 794 794 794 793 793 793 792 792 791 791 791 791 791 791 790 790 789 788 787 786 786 785 784 784 783 782 781 780 779 778 778 777 776
756 758 761 762 764 766 768 770 771 772 774 776 777 778 780 781 782 783 784 785 786 787 787 788 789 790 791 791 792 792 793 793 793 793 794 793 793 793 793 793 793 792 792 791 791 790 790 790 790 790 789 789 788 787 786 786 785 784 783 782 782 781 780 779 778 777 776 776 775
757 759 761 763 765 767 769 770 772 774 775 776 778 779 780 781 782 783 784 785 786 787 788 788 789 790 791 791 792 792 792 793 793 793 793 793 793 793 793 792 792 791 791 791 790 790 790 789 789 789 789 788 787 786 786 785 784 783 782 781 781 780 779 778 777 776 775 774 774
758 760 762 764 766 768 770 771 773 774 776 777 778 780 781 782 783 784 785 786 786 787 788 788 789 790 791 791 791 792 792 792 793 793 793 792 792 792 792 792 791 791 790 790 789 789 789 789 788 788 788 787 786 786 785 784 783 782 781 780 779 779 778 777 776 775 774 773 772
759 761 763 765 767 769 771 772 774 775 776 778 779 780 781 783 784 785 785 786 786 787 788 788 789 790 791 791 791 792 792 792 792 792 792 792 792 792 791 791 791 790 790 789 789 788 788 788 788 787 786 786 785 785 784 783 782 781 780 779 778 777 777 776 775 774 773 772 771
760 762 764 766 768 770 771 773 775 776 777 779 780 781 782 783 784 785 786 786 787 787 788 789 789 790 790 791 791 791 792 792 792 792 792 791 791 791 791 790 790 789 789 788 788 788 787 787 787 786 786 785 784 783 782 781 781 780 779 778 777 776 776 775 774 773 772 771 771
761 763 765 767 769 771 772 774 775 776 778 779 781 782 783 783 784 785 786 786 787 787 788 789 789 790 790 791 791 791 791 791 791 791 791 791 791 791 790 790 789 789 788 788 787 787 787 786 786 785 785 784 783 782 781 780 780 779 778 777 776 776 775 774 773 772 771 771 770
762 764 766 768 769 771 773 775 776 777 779 780 781 782 783 783 784 785 786 786 787 788 788 789 789 790 790 791 791 791 791 791 791 791 791 790 790 790 789 789 789 788 788 787 787 786 786 786 785 784 783 783 782 781 780 779 778 777 776 776 775 774 774 773 772 771 771 770 769
763 765 766 768 770 772 774 775 777 778 779 781 781 782 783 784 784 785 786 786 787 788 788 789 789 790 790 791 791 791 791 791 791 790 790 790 789 789 789 789 788 788 787 786 786 786 785 785 784 783 782 781 781 780 779 778 777 776 775 775 774 773 772 771 771 770 769 769 768
764 765 767 769 771 772 774 776 777 779 780 781 782 782 783 784 785 785 786 786 787 788 788 789 789 790 790 790 790 790 790 790 790 790 790 789 789 789 788 788 788 787 786 786 785 785 784 783 783 782 781 780 779 778 777 776 776 775 774 773 772 772 771 770 770 769 768 767 767
764 766 768 770 771 773 775 776 778 779 780 781 782 783 783 784 785 785 786 786 787 788 788 789 789 789 790 790 790 790 790 790 789 789 789 789 788 788 788 788 787 786 786 785 784 784 783 782 782 781 780 779 778 777 776 776 775 774 773 772 771 771 770 769 768 768 767 766 766
766 767 768 770 772 774 775 777 778 779 780 781 782 783 783 784 785 786 786 787 787 788 788 789 789 789 789 790 790 789 789 789 789 789 788 788 788 787 787 787 786 786 785 784 783 783 782 781 781 780 779 778 777 776 775 774 773 772 771 771 770 769 769 768 767 766 766 765 765
766 768 769 771 773 774 776 777 778 779 780 781 782 783 783 784 785 786 786 787 787 788 788 789 789 789 789 789 789 789 789 788 788 788 788 787 787 787 787 786 786 785 784 783 783 782 781 781 780 779 778 777 776 776 774 773 772 771 771 770 769 768 767 767 766 766 765 764 764
768 769 770 772 773 775 776 777 779 780 780 781 782 783 784 784 785 786 786 787 787 788 788 789 789 789 789 789 789 788 788 788 788 787 787 787 786 786 786 786 785 784 783 782 782 781 780 780 779 778 777 777 776 775 773 772 771 771 770 769 768 767 766 766 765 765 764 763 762
769 770 771 773 774 776 777 778 779 780 780 781 782 783 784 785 785 786 786 787 787 788 788 788 788 788 788 788 788 788 788 787 787 787 786 786 786 785 785 785 784 783 782 781 781 780 779 779 778 777 776 776 775 774 773 771 771 770 769 768 767 766 765 765 764 764 763 762 761
770 771 772 774 775 776 777 778 779 780 781 781 782 783 784 785 785 786 786 787 787 787 788 788 788 788 788 788 788 788 787 787 787 786 786 786 785 785 784 784 783 782 782 781 780 779 778 778 777 776 776 775 774 773 772 771 770 769 768 767 766 766 765 764 763 762 762 761 760